Home   Weather   Ilanz   Past weeks

Flag for Switzerland Past Weather in Ilanz, Graubünden, Switzerland — Yesterday and Last 2 Weeks

Now
74 °F

Mild.


Feels Like: 77 °F
Forecast: 48 / 60 °F
Wind: 12 mph from South

Location: Chur

Current Time: Aug 18, 2017 at 11:05:55 am

Latest Report: Aug 18, 2017 at 10:00 am


Visibility: N/A

Pressure: 30.00 "Hg (27.67 "Hg at 703m altitude)

Humidity: 59%

Dew Point: 59 °F

Location of IlanzLocation

Past Weather in Ilanz — Graph

°F

Ilanz Temperature Yesterday

Maximum temperature yesterday: 82 °F (at 4:00 pm)
Minimum temperature yesterday: 63 °F (at 4:00 am)
Average temperature yesterday: 72 °F

High & Low Weather Summary for the Past Weeks

 TemperatureHumidityPressure
High87 °F (Aug 3, 4:00 pm)95% (Aug 8, 9:00 pm)30.24 "Hg (Aug 8, 9:00 pm)
Low51 °F (Aug 11, 6:00 am)32% (Aug 14, 2:00 pm)29.78 "Hg (Aug 8, 12:00 pm)
Average67 °F73%30.05 "Hg
* Reported Aug 3 9:00 am — Aug 18 9:00 am, Ilanz. Weather by CustomWeather, © 2017

Note: Actual official high and low records may vary slightly from our data, if they occured in-between our weather recording intervals... More about our weather records

Advertising

Ilanz Weather History for the Previous 24 Hours

Scroll right to see more
 ConditionsComfort  
Time TempWeatherWind HumidityBarometerVisibility
9:00 am
Fri, Aug 18
70 °FMild.7 mph68%30.04 "HgN/A
8:00 am65 °FOvercast.7 mph81%30.07 "Hg5 mi
7:00 am64 °FMild.5 mph86%30.08 "HgN/A
6:00 am64 °FMild.5 mph89%30.09 "HgN/A
5:00 am63 °FMild.1 mph92%30.09 "HgN/A
4:00 am64 °FMild.No wind91%30.09 "HgN/A
3:00 am67 °FMild.1 mph85%30.08 "HgN/A
2:00 am68 °FFog.2 mph84%30.07 "Hg4 mi
1:00 am69 °FMild.5 mph82%30.07 "HgN/A
12:00 am69 °FMild.3 mph85%30.07 "HgN/A
11:00 pm
Thu, Aug 17
69 °FFog.No wind86%30.08 "Hg4 mi
10:00 pm72 °FMild.2 mph76%30.06 "HgN/A
9:00 pm74 °FMild.6 mph73%30.05 "HgN/A
8:00 pm76 °FPartly sunny.12 mph68%30.02 "Hg4 mi
7:00 pm78 °FWarm.10 mph60%29.99 "HgN/A
6:00 pm78 °FWarm.12 mph60%29.98 "HgN/A
5:00 pm82 °FScattered clouds.12 mph54%29.96 "Hg9 mi
4:00 pm82 °FWarm.13 mph52%29.96 "HgN/A
3:00 pm82 °FWarm.14 mph51%29.98 "HgN/A
2:00 pm80 °FOvercast.12 mph50%30.00 "Hg11 mi
1:00 pm80 °FWarm.8 mph54%30.01 "HgN/A
12:00 pm77 °FMild.2 mph50%30.04 "HgN/A
11:00 am73 °FPartly sunny.1 mph60%30.08 "Hg11 mi
Weather by CustomWeather, © 2017

See weather overviewHow to use our weather pages